Location: Veyrier
(46.1830°N, 6.2000°E)
Time: 12:56:02
(UTC+02:00)

N. Korean satellite - Visible Passes

Search period start: 20 September 2020 00:00
Search period end: 30 September 2020 00:00
Orbit: 455 x 503 km, 97.2° (Epoch: 19 September)

Date Brightness Start Highest point End Pass type
(mag) Time Alt. Az. Time Alt. Az. Time Alt. Az.
20 Sep 9.6 06:24:15 10° NE 06:27:05 21° E 06:29:54 10° SE visible
21 Sep 10.3 05:59:58 10° ENE 06:00:51 11° E 06:01:42 10° ESE visible
23 Sep 8.8 06:39:13 10° NNE 06:42:31 31° E 06:45:44 10° SSE visible
24 Sep 9.8 06:14:00 10° NE 06:16:19 16° E 06:18:36 10° SE visible
26 Sep 7.8 06:54:20 10° NNE 06:57:53 47° E 07:01:20 10° S visible
27 Sep 9.4 06:28:46 10° NE 06:31:44 23° E 06:34:39 10° SSE visible
28 Sep 10.1 06:04:03 10° ENE 06:05:29 12° E 06:06:54 10° ESE visible
